Temp
62 56 53 60 65 67 70 68 67 73 79 73 72 75 78 84 86 85 86 86 87 89 95 97 96 96 91 89 88 88 88 86 84 84 84 82 80 81 87 89 91 86 87 87
56 50 62 67 67 66 66 67 68 73 79 74 72 73 79 84 83 86 86 86 88 90 93 94 94 93 92 88 87 88 88 86 86 85 86 89 86 80 81 81 86 86 88 88
52 57 64 64 65 62 64 63 68 68 73 76 71 69 75 82 85 86 87 89 90 89 90 92 91 90 91 87 86 84 86 85 86 85 83 86 85 81 87 84 81 83 85 84
55 65 61 59 60 65 59 70 71 68 66 59 72 59 70 77 78 82 84 87 89 90 92 92 90 88 88 87 84 82 81 81 83 84 84 83 84 82 83 80 80 79 81 83
49 59 59 57 60 67 64 72 70 69 66 63 65 62 70 76 74 77 82 86 89 91 92 92 92 90 91 86 82 80 79 79 81 85 86 84 85 83 86 86 81 79 79 80
59 67 64 63 67 68 71 67 68 69 66 51 64 63 66 71 74 79 82 86 88 90 92 93 94 93 91 92 88 82 78 78 80 82 83 82 81 81 84 82 81 82 83 80
54 56 63 67 61 67 65 59 49 48 49 52 68 61 69 78 80 81 81 85 88 90 90 90 89 88 87 86 86 84 79 76 78 77 78 78 77 79 77 79 82 81 80 78
42 43 54 65 61 59 59 58 50 41 46 54 67 58 64 78 81 85 86 85 84 85 89 88 88 87 87 85 84 82 80 77 77 74 73 74 79 81 80 78 79 79 78 75
42 49 63 63 65 64 61 53 66 59 62 59 63 63 68 73 72 73 74 75 77 83 82 81 81 83 83 82 81 80 78 76 77 77 76 76 77 75 73 73 75 75 74 76
48 44 61 61 66 64 62 68 54 60 47 47 58 58 61 62 65 66 65 62 68 76 79 81 82 81 81 78 75 77 78 76 77 77 76 75 74 74 73 72 70 70 71 72
47 48 53 60 55 53 58 55 61 62 61 52 50 58 73 66 65 57 56 59 64 67 67 71 75 77 78 79 78 76 77 76 75 75 74 73 73 73 72 72 71 71 71 71
47 45 47 53 62 66 65 60 62 54 52 59 59 52 75 69 63 57 57 65 70 71 74 77 77 78 77 77 77 76 75 75 75 75 74 72 72 72 70 70 70 71 70 72
47 39 39 44 50 49 53 64 65 63 62 56 53 46 62 58 55 58 61 64 69 72 73 74 75 75 75 75 75 75 76 75 76 75 73 71 70 70 68 68 69 70 70 71
47 44 48 41 46 49 50 58 63 62 54 56 55 44 47 49 51 56 58 63 66 68 69 71 71 72 73 73 74 73 74 75 75 74 72 69 68 68 68 68 68 69 70 70
43 43 52 48 56 61 59 54 62 59 62 59 51 47 47 49 51 55 60 63 63 65 66 67 67 70 70 70 70 71 71 72 73 72 70 68 69 69 68 68 68 68 68 69
45 45 53 42 49 56 56 61 64 64 63 61 61 48 56 53 56 55 58 61 62 63 65 68 68 68 68 68 68 68 68 68 70 68 68 68 68 68 67 67 67 67 67 67
43 49 41 36 50 57 52 60 60 61 66 57 48 47 51 50 52 54 59 61 62 64 66 66 65 65 64 65 66 65 66 68 67 68 67 67 67 67 66 67 67 64 62 63
41 46 45 40 43 32 59 68 63 63 59 58 49 49 52 52 55 61 65 63 63 64 64 64 64 63 63 65 65 65 66 66 67 66 66 66 66 65 65 65 63 60 62 61
44 49 47 39 39 46 52 61 62 57 45 51 49 50 52 55 57 55 62 63 64 63 63 63 63 62 61 62 63 64 64 65 66 65 64 64 64 63 62 59 58 58 59 62
58 61 49 42 38 34 40 54 63 65 41 51 52 50 51 55 48 48 58 60 60 60 59 59 60 60 59 59 62 62 62 62 61 62 62 62 62 59 58 58 57 57 60 59
40 39 43 48 39 35 40 50 62 42 45 55 56 54 56 58 53 53 57 55 56 55 54 54 56 55 55 57 59 58 58 57 60 62 62 61 60 58 59 58 57 58 59 61
34 36 36 46 41 34 42 58 51 51 60 59 57 58 52 51 52 52 52 53 54 54 55 54 50 51 53 56 58 56 54 58 59 60 59 58 57 60 61 57 56 58 59 59
34 36 34 32 31 38 42 50 60 62 58 59 60 56 57 55 53 52 50 50 50 50 52 54 52 51 52 54 54 52 53 56 56 55 54 54 54 57 58 57 55 60 59 59
37 41 36 36 32 34 40 47 54 56 54 56 58 57 57 52 52 50 47 44 45 48 49 51 52 50 49 51 52 51 52 54 54 53 52 52 52 52 55 55 57 58 55 56
33 35 36 31 33 37 36 41 43 45 48 52 53 53 52 51 50 49 50 50 52 52 50 49 47 47 48 51 51 52 52 51 50 50 50 49 50 50 52 52 50 53 48 46
33 32 33 28 33 33 32 38 41 39 39 41 42 43 46 48 49 50 51 52 51 49 48 45 45 48 50 53 51 50 50 47 46 47 47 46 47 46 46 47 47 38 40 39
MSLP
1002.68 1001.73 999.45 997.69 997.35 997.42 995.78 995.13 994.75 994.27 994.82 995.72 995.57 995.45 995.71 995.38 995.40 995.95 996.49 996.88 997.29 997.52 997.81 998.30 999.30 1000.01 1001.03 1002.30 1003.64 1004.34 1005.10 1005.75 1006.70 1007.28 1007.76 1008.07 1008.69 1008.76 1008.79 1009.10 1009.23 1009.95 1010.23 1010.35
1002.31 1000.28 998.84 998.64 998.30 997.49 996.29 994.76 993.82 994.42 994.13 995.25 995.37 994.84 994.87 994.65 995.17 995.15 995.84 996.13 996.67 997.03 997.45 997.99 999.10 1000.23 1000.86 1002.35 1003.73 1004.32 1004.95 1005.65 1006.44 1007.22 1007.50 1007.20 1007.86 1008.63 1008.84 1009.13 1009.73 1009.99 1010.17 1010.58
999.99 999.24 999.65 998.01 996.95 996.69 995.80 994.89 993.47 993.64 994.33 994.93 995.45 994.76 994.18 994.08 994.57 995.01 995.34 995.66 996.24 996.87 997.30 997.80 999.05 1000.15 1000.94 1002.40 1003.49 1004.40 1004.96 1005.61 1006.03 1006.42 1007.21 1007.53 1008.09 1008.72 1008.83 1009.29 1010.19 1010.45 1010.60 1011.12
999.88 998.59 997.88 997.95 996.67 995.69 994.75 995.10 994.04 993.93 994.29 994.48 995.10 993.24 993.42 993.47 993.99 994.47 994.97 995.21 995.56 996.31 996.93 997.65 999.29 1000.26 1001.09 1002.10 1003.42 1004.50 1005.02 1005.71 1006.15 1006.63 1007.21 1007.53 1007.60 1007.96 1008.37 1009.45 1010.33 1010.85 1011.15 1011.15
999.35 997.09 996.46 996.06 995.95 995.44 994.24 994.94 994.36 994.18 994.10 994.67 994.38 993.74 991.34 992.96 993.05 993.67 994.50 995.02 995.17 995.91 996.51 997.45 998.68 1000.09 1000.92 1002.17 1003.58 1004.55 1005.41 1006.11 1006.60 1006.57 1006.82 1007.44 1007.28 1008.31 1008.62 1009.13 1010.15 1011.08 1011.62 1011.68
998.22 996.91 995.76 995.01 995.50 995.41 995.33 994.90 994.91 994.58 994.37 994.56 993.23 992.96 991.29 991.06 991.85 993.15 994.39 994.89 995.34 995.92 996.64 997.47 998.47 999.54 1000.87 1001.89 1003.17 1004.90 1005.73 1006.25 1006.70 1006.95 1007.21 1007.50 1008.03 1008.31 1008.67 1009.45 1010.20 1010.45 1010.96 1011.77
998.45 996.70 995.66 995.14 994.67 995.40 995.01 994.65 994.32 994.08 993.71 992.75 992.38 992.99 990.27 990.30 991.83 992.73 994.04 994.83 995.43 996.23 997.16 998.16 999.33 1000.35 1001.70 1002.57 1003.59 1004.78 1005.80 1006.73 1007.13 1007.71 1008.13 1008.33 1008.92 1009.10 1009.70 1009.94 1010.04 1010.52 1011.19 1011.92
998.23 996.35 996.24 994.50 994.23 993.95 994.68 994.42 993.30 992.21 991.55 991.52 992.21 991.95 991.79 991.90 992.76 993.06 994.47 995.37 996.75 997.79 998.17 999.24 1000.03 1001.14 1002.18 1003.23 1004.23 1005.43 1006.07 1006.93 1007.68 1008.29 1008.82 1009.28 1009.61 1009.74 1010.27 1010.75 1011.02 1011.28 1011.89 1012.81
997.94 995.34 995.42 994.65 994.73 994.03 993.86 993.61 993.56 992.49 992.41 991.30 991.21 993.14 994.11 994.86 995.59 996.17 996.87 997.94 998.99 998.70 999.39 1000.71 1002.03 1002.62 1003.43 1004.35 1005.17 1005.81 1006.61 1007.54 1008.30 1008.91 1009.47 1009.99 1010.45 1011.02 1011.68 1012.03 1012.09 1012.55 1012.89 1013.12
998.79 995.97 994.43 995.39 994.43 994.98 993.87 993.59 993.67 992.01 990.96 990.58 990.43 992.17 993.13 996.19 997.47 998.73 999.85 1001.05 1001.71 1001.26 1001.44 1001.95 1002.57 1003.49 1004.42 1005.51 1006.37 1006.97 1007.68 1008.39 1008.97 1009.49 1010.16 1010.89 1011.48 1011.87 1012.27 1012.69 1013.07 1013.45 1013.68 1013.71
1000.12 997.74 995.08 994.53 993.64 994.25 993.51 993.39 993.29 992.09 990.63 990.31 990.54 991.75 992.50 996.22 998.81 1000.77 1002.17 1003.11 1003.52 1003.43 1003.86 1004.04 1004.40 1005.19 1005.80 1006.35 1007.21 1007.83 1008.48 1009.14 1009.75 1010.34 1010.90 1011.39 1011.85 1012.43 1012.72 1013.11 1013.55 1013.85 1013.89 1013.96
1000.87 999.16 995.42 994.05 994.27 993.51 993.00 993.14 992.34 991.69 991.44 991.17 991.52 993.86 993.99 997.15 1000.50 1002.13 1003.11 1003.28 1003.59 1003.97 1004.02 1004.26 1004.75 1005.54 1006.39 1007.12 1007.90 1008.59 1009.21 1009.75 1010.33 1010.95 1011.51 1012.06 1012.55 1013.01 1013.49 1013.75 1014.04 1014.06 1014.19 1013.95
1000.97 999.58 996.81 995.34 994.88 995.19 994.00 992.56 992.22 992.28 991.79 991.71 992.89 997.45 998.67 1000.59 1002.44 1003.51 1003.35 1003.80 1003.95 1004.23 1004.78 1005.38 1005.84 1006.51 1007.39 1008.21 1008.67 1009.19 1009.76 1010.28 1010.86 1011.43 1012.11 1012.82 1013.15 1013.56 1013.91 1014.05 1014.27 1014.24 1014.15 1013.97
1001.09 999.09 995.89 994.54 994.61 995.63 993.53 992.61 992.65 992.64 992.77 992.81 994.43 998.70 1001.26 1002.66 1003.54 1004.25 1004.72 1004.89 1005.33 1005.78 1006.31 1006.68 1007.15 1007.78 1008.48 1009.19 1009.68 1010.29 1010.70 1011.09 1011.51 1011.96 1012.64 1013.27 1013.56 1013.89 1014.24 1014.39 1014.41 1014.38 1014.30 1014.15
1000.32 998.61 996.27 996.57 994.97 993.89 993.39 994.03 992.44 992.46 992.39 993.19 996.31 999.15 1001.54 1003.27 1004.60 1005.19 1005.50 1005.74 1006.18 1006.65 1007.04 1007.68 1008.21 1008.87 1009.68 1010.30 1010.78 1011.29 1011.71 1012.10 1012.38 1012.75 1013.29 1013.69 1013.88 1014.24 1014.55 1014.63 1014.58 1014.63 1014.52 1014.41
1000.05 998.32 996.75 997.36 996.29 994.47 993.31 992.50 992.21 993.14 993.21 995.46 996.54 1000.35 1002.64 1004.15 1005.55 1006.08 1006.36 1006.33 1006.57 1007.19 1007.72 1008.47 1009.23 1010.01 1010.71 1011.31 1011.81 1012.34 1012.75 1012.99 1013.21 1013.57 1013.80 1014.10 1014.29 1014.50 1014.76 1014.69 1014.63 1014.64 1014.63 1014.74
999.57 998.10 997.88 997.15 995.92 993.77 992.97 992.25 993.16 993.75 994.39 996.41 998.80 1000.78 1003.05 1004.83 1005.83 1006.48 1006.41 1006.72 1007.09 1007.85 1008.74 1009.76 1010.71 1011.59 1012.18 1012.58 1012.98 1013.22 1013.56 1013.73 1013.89 1014.07 1014.34 1014.49 1014.48 1014.73 1014.85 1014.81 1014.72 1015.15 1015.20 1015.30
999.57 998.53 997.96 997.38 997.06 996.53 993.67 993.51 995.42 994.72 996.17 997.82 1000.41 1002.85 1003.94 1004.99 1006.30 1006.62 1006.80 1007.25 1008.11 1009.00 1010.15 1011.13 1012.05 1012.82 1013.33 1013.66 1013.98 1014.11 1014.26 1014.40 1014.44 1014.59 1014.76 1014.84 1015.02 1015.19 1015.19 1015.15 1015.34 1015.74 1015.62 1015.56
998.97 997.55 997.19 997.67 998.19 997.88 996.86 995.33 995.54 996.70 999.66 999.37 1001.25 1003.92 1005.13 1005.78 1006.42 1007.61 1008.15 1008.95 1009.65 1010.57 1011.58 1012.52 1013.39 1014.07 1014.53 1014.70 1014.79 1014.79 1015.03 1015.10 1014.98 1015.13 1015.35 1015.46 1015.63 1015.75 1015.78 1016.01 1016.12 1016.23 1016.07 1015.70
997.66 996.54 997.41 998.67 999.16 1000.36 1001.04 999.25 998.13 997.52 1000.03 1002.27 1002.96 1004.43 1005.44 1006.09 1007.17 1009.42 1010.13 1011.10 1011.87 1012.77 1013.65 1014.19 1014.56 1015.04 1015.38 1015.63 1015.55 1015.53 1015.74 1015.80 1015.83 1015.90 1016.01 1016.14 1016.31 1016.49 1016.52 1016.57 1016.54 1016.60 1016.35 1016.05
1000.54 999.45 999.40 999.86 1001.74 1003.58 1004.10 1002.26 1000.35 1000.14 1001.16 1003.10 1004.29 1005.25 1006.15 1006.25 1008.44 1010.46 1011.63 1012.79 1013.64 1014.47 1015.33 1015.94 1015.93 1016.15 1016.64 1016.59 1016.52 1016.59 1016.82 1016.80 1016.75 1016.54 1016.31 1016.57 1016.92 1016.95 1016.75 1016.81 1016.82 1016.85 1016.46 1016.21
1003.41 1003.00 1003.02 1002.91 1004.24 1006.50 1006.05 1002.53 1001.77 1002.68 1002.47 1003.78 1005.22 1006.20 1007.62 1008.77 1010.25 1011.78 1013.03 1013.93 1014.49 1015.50 1015.88 1016.49 1017.05 1017.33 1017.62 1017.40 1017.19 1017.43 1017.67 1017.72 1017.51 1017.14 1017.14 1017.25 1017.46 1017.17 1016.87 1017.07 1017.14 1017.00 1016.70 1016.51
1006.82 1007.27 1007.30 1008.69 1010.11 1009.93 1008.76 1006.37 1004.57 1003.93 1004.58 1005.49 1006.10 1007.72 1008.68 1010.02 1011.47 1012.72 1014.12 1015.38 1016.12 1016.51 1016.83 1017.15 1017.48 1017.91 1018.27 1018.35 1018.49 1018.51 1018.89 1018.50 1018.29 1018.12 1018.19 1018.31 1018.32 1017.75 1017.49 1017.31 1017.43 1016.87 1017.10 1016.99
1009.44 1009.30 1009.57 1010.78 1012.19 1011.72 1010.63 1009.14 1007.83 1007.31 1007.44 1007.83 1008.33 1009.32 1010.35 1011.52 1013.15 1014.32 1015.67 1016.77 1017.20 1017.45 1017.62 1018.01 1018.38 1018.75 1019.07 1019.29 1019.50 1019.77 1019.75 1019.28 1018.94 1018.78 1018.85 1019.00 1018.87 1018.72 1018.23 1018.02 1017.78 1017.87 1018.47 1018.15
1013.10 1012.23 1012.23 1013.26 1013.65 1013.27 1013.11 1012.39 1011.72 1011.08 1010.61 1010.61 1011.07 1011.85 1012.65 1013.57 1014.71 1015.22 1016.21 1016.85 1017.39 1017.97 1018.72 1019.44 1019.71 1019.66 1019.70 1019.91 1020.20 1020.34 1020.26 1020.15 1019.78 1019.63 1019.75 1019.86 1019.65 1019.62 1019.03 1019.11 1019.52 1019.17 1020.53 1020.39
1015.07 1014.58 1014.06 1014.98 1015.18 1015.03 1015.55 1014.99 1014.44 1013.91 1014.03 1014.11 1013.95 1014.63 1015.38 1015.58 1015.93 1016.42 1016.98 1017.81 1018.55 1019.25 1019.84 1020.35 1020.47 1020.35 1020.27 1020.12 1020.49 1020.81 1020.87 1021.09 1020.88 1020.63 1020.73 1020.77 1020.44 1020.31 1020.23 1020.07 1020.23 1020.85 1021.25 1021.33
Wind_Speed
26 19 26 37 35 25 24 24 27 20 23 20 24 21 23 13 16 19 19 19 18 19 18 17 13 13 15 15 13 16 15 13 9 8 9 8 8 6 6 6 6 6 3 4
26 27 30 29 32 32 31 28 25 24 18 21 21 24 22 19 14 16 18 17 19 18 16 16 17 13 17 17 17 15 14 14 13 11 10 7 7 5 2 4 4 4 5 3
25 31 30 29 29 33 29 30 21 21 16 17 20 23 25 23 19 14 13 19 18 17 19 18 13 15 17 17 17 14 13 13 11 8 5 5 7 5 6 8 5 5 5 2
23 29 26 33 30 28 27 28 25 18 20 15 23 15 24 22 21 18 16 15 18 19 20 17 16 15 15 16 12 11 10 11 8 12 10 9 8 7 4 4 5 6 3 1
18 26 29 32 34 30 23 24 25 19 22 16 20 15 22 22 24 23 19 18 17 18 21 21 22 16 15 15 12 9 11 10 9 10 10 8 7 8 5 6 7 9 6 6
26 20 25 22 31 30 25 21 24 17 16 14 21 20 19 24 26 22 21 20 17 18 18 15 14 20 15 13 18 14 13 11 9 8 7 5 8 6 8 7 6 5 5 7
24 25 23 21 23 31 25 21 17 15 14 17 20 17 17 23 23 21 23 22 21 15 12 11 14 14 14 15 15 13 12 10 8 9 7 8 8 9 10 8 5 7 6 6
19 21 24 17 20 20 27 24 17 29 24 20 25 13 13 15 12 18 23 18 13 13 15 16 16 16 16 16 15 14 14 13 11 12 12 10 11 8 8 9 6 7 6 6
15 20 25 23 14 26 33 27 29 21 20 17 18 15 15 11 13 14 18 17 11 11 15 15 15 14 15 15 15 15 16 15 15 15 13 13 12 13 11 10 8 7 6 6
9 15 27 23 22 21 26 26 28 21 22 21 22 22 14 15 16 16 15 13 10 11 17 17 16 17 17 17 14 16 17 17 16 15 13 12 12 12 11 10 10 8 6 5
6 8 19 23 20 24 17 21 24 23 13 19 15 19 15 24 21 19 16 16 16 15 14 15 17 18 19 19 17 17 17 17 15 14 13 13 12 11 10 9 8 6 5 4
5 7 15 28 23 27 24 28 31 13 24 15 12 7 3 26 21 20 19 21 22 22 21 20 20 19 19 18 17 16 15 15 15 14 13 12 11 10 8 7 6 5 5 5
6 5 12 21 4 11 19 27 25 23 15 20 11 9 16 22 19 16 19 20 19 19 21 19 19 18 18 17 16 16 15 14 14 13 12 10 9 8 7 7 6 5 6 6
8 7 18 17 22 24 28 21 22 21 15 8 9 18 16 19 17 18 18 21 21 20 20 19 18 18 17 16 16 15 14 13 12 12 11 9 8 7 6 5 6 6 6 6
4 10 13 5 12 22 23 28 28 26 13 15 25 21 21 23 18 21 21 23 23 21 20 19 18 17 16 15 14 14 13 11 10 10 9 7 6 6 5 6 6 5 5 6
8 7 15 7 14 24 23 26 25 21 15 9 19 22 22 21 19 19 19 21 22 21 20 19 19 18 16 14 13 12 11 10 9 8 8 7 6 5 5 5 5 5 6 8
6 6 5 10 22 27 26 23 22 12 9 8 12 18 24 22 20 18 20 21 22 21 20 19 17 15 13 12 10 10 9 8 8 7 7 6 5 6 6 5 6 8 6 7
7 2 5 5 16 8 14 20 17 5 14 9 27 21 22 22 18 18 18 21 21 20 19 16 14 13 12 11 10 8 8 6 7 7 7 7 7 6 6 7 7 6 6 4
16 6 6 7 4 10 13 13 14 4 15 22 29 23 22 21 21 16 16 18 18 18 16 14 13 12 11 10 8 8 7 6 8 8 8 8 7 7 8 6 6 6 7 6
3 5 6 5 4 5 6 17 14 7 12 21 26 24 26 25 18 13 17 17 17 15 13 11 12 12 11 9 8 8 8 8 9 8 8 7 8 7 5 5 5 5 5 5
7 9 4 10 7 5 11 20 13 4 9 23 23 25 22 11 14 19 18 16 14 13 13 12 12 11 10 9 8 8 8 8 7 7 7 8 7 5 1 3 4 4 4 5
7 8 7 5 6 7 20 6 5 3 20 20 19 17 20 24 25 20 18 15 14 13 13 12 10 10 10 9 8 9 10 8 7 8 8 7 7 5 4 5 5 3 5 3
7 8 5 8 5 8 13 8 9 12 18 19 19 21 23 24 22 20 17 14 12 12 11 10 10 10 10 10 10 10 8 8 8 8 7 7 8 6 5 3 3 2 4 4
11 16 5 2 8 12 16 18 19 19 16 17 17 20 22 23 19 18 15 12 11 10 9 10 10 10 10 9 9 9 8 9 7 7 7 7 6 8 6 6 7 5 7 6
6 10 7 5 4 8 16 16 17 20 20 21 20 19 19 20 19 16 15 13 12 12 12 10 9 9 8 8 8 8 9 10 8 6 6 6 5 7 7 7 7 6 8 9
9 6 4 4 7 10 5 10 15 18 17 16 19 18 17 16 17 16 14 13 12 12 11 10 9 8 7 7 9 8 9 9 8 6 7 7 5 5 6 4 5 12 9 4
Wind_Direction
215 216 209 214 221 227 227 223 219 210 222 197 222 223 219 204 229 199 209 210 209 211 204 192 185 194 160 148 167 179 180 175 160 168 187 182 184 214 195 200 185 133 211 205
209 223 225 219 217 227 232 239 213 218 196 185 212 226 208 209 215 198 202 196 198 199 201 190 168 186 171 162 178 181 177 166 171 175 196 199 180 189 176 116 141 199 207 215
208 215 226 234 223 215 218 228 232 195 175 205 224 221 223 215 193 201 211 198 199 199 198 184 161 184 176 178 172 184 178 167 185 152 140 136 130 143 178 148 163 176 204 227
231 205 214 227 232 220 211 219 233 183 182 203 222 216 211 204 211 213 202 209 189 193 195 163 173 170 179 177 161 173 172 149 163 151 162 171 174 169 136 120 120 123 67 52
220 229 213 198 219 222 220 204 222 201 205 201 201 244 193 201 207 202 202 202 191 185 184 174 170 168 168 145 151 145 134 140 151 171 161 172 211 132 142 100 110 84 86 55
248 241 228 229 197 226 216 207 206 214 214 206 207 214 225 185 201 186 192 197 188 178 182 181 169 155 149 149 142 145 154 146 154 164 139 154 124 168 138 131 150 133 120 95
233 233 247 219 193 204 212 199 188 193 194 207 187 202 251 174 186 177 185 187 184 152 163 133 136 136 151 144 142 139 133 137 136 121 132 99 98 94 111 161 107 126 105 83
216 215 222 203 207 193 196 179 199 179 194 194 185 210 203 62 90 195 179 141 135 166 160 171 144 138 138 133 124 128 134 127 113 97 98 110 127 108 99 70 85 77 87 73
216 212 182 243 184 214 184 200 210 198 200 197 181 144 77 123 102 86 99 115 161 155 107 111 134 142 125 122 127 129 112 109 108 105 101 94 86 84 91 94 97 82 58 108
299 232 181 191 177 219 191 206 201 226 195 221 187 161 151 162 149 118 114 118 140 143 141 138 120 117 112 102 104 114 116 115 111 106 102 98 96 92 92 88 81 72 72 57
323 257 212 185 199 192 194 192 218 227 233 205 184 172 154 160 154 140 133 142 150 126 119 116 116 120 126 119 113 111 109 106 101 99 97 92 89 85 81 77 71 65 55 23
231 266 199 190 177 222 195 203 209 210 228 254 166 72 170 132 134 137 142 157 136 141 143 132 124 117 115 113 109 104 102 100 97 95 92 89 88 85 78 73 62 46 24 12
219 220 196 194 189 272 245 198 207 223 239 220 172 125 87 110 127 139 136 128 129 120 115 115 115 114 111 109 107 103 98 97 100 101 97 89 84 81 66 57 40 22 11 7
242 260 205 187 190 182 214 200 200 206 239 216 184 131 120 121 130 129 131 130 127 122 123 120 116 111 105 102 98 96 93 91 89 88 85 80 71 62 53 36 27 18 11 3
123 234 185 83 227 196 198 201 194 217 213 219 139 145 144 134 135 134 135 134 131 129 123 118 113 108 106 101 95 88 81 77 75 81 76 68 69 56 42 28 28 19 10 1
203 248 142 201 258 235 198 212 186 190 208 72 161 132 138 128 134 139 140 138 130 127 119 114 108 104 99 93 88 83 78 75 72 69 67 57 43 45 34 23 30 22 18 15
308 190 106 195 212 182 196 197 192 117 225 145 168 131 133 132 136 144 142 137 127 119 116 110 103 96 90 83 78 77 72 73 72 68 63 51 34 33 24 21 31 28 13 22
319 153 157 106 104 168 197 137 215 133 26 121 117 129 129 128 136 145 132 122 119 114 112 108 102 94 83 79 76 71 70 63 72 63 51 40 27 23 19 30 36 13 4 19
210 207 124 140 115 124 60 132 167 47 94 119 120 125 123 124 112 95 102 111 110 100 93 90 89 85 77 70 66 69 69 65 58 48 42 24 25 28 29 16 24 19 351 337
38 160 103 113 125 97 346 349 6 120 100 125 128 133 132 136 113 118 107 103 100 99 95 87 90 81 70 59 56 63 56 48 37 33 42 34 34 28 19 358 14 15 336 341
1 356 167 113 81 99 347 322 289 78 111 138 138 139 153 133 119 124 119 113 113 105 96 82 72 72 64 57 61 61 47 37 17 24 32 41 28 345 49 10 44 356 345 7
4 319 28 9 101 76 345 347 21 264 126 123 128 136 103 113 120 128 117 113 104 102 95 92 89 76 58 46 54 55 40 16 17 23 25 24 8 333 28 23 21 4 359 28
38 1 29 29 61 344 333 344 86 103 114 131 119 120 125 123 120 114 110 107 105 94 86 89 88 79 64 54 39 47 16 18 20 23 21 21 344 357 358 41 352 346 34 0
1 13 76 188 18 17 20 31 62 76 85 103 108 113 116 115 115 110 112 112 105 103 97 85 79 74 67 53 50 41 16 12 16 26 25 18 359 343 17 17 1 38 18 1
360 308 45 76 102 65 27 42 62 66 63 82 87 98 111 118 117 115 113 111 102 92 81 75 77 76 72 67 54 38 31 20 15 27 25 21 24 2 6 58 24 31 51 22
346 331 332 68 40 86 39 55 81 85 84 86 94 95 97 106 107 106 96 90 92 91 86 86 79 73 67 69 65 44 42 31 16 27 21 31 14 43 360 0 124 62 82 118